Year,Month,Day,Hour,Minute,Value (Times are PST for temperature in C)
2014,09,15,00,00,13.90
2014,09,15,00,01,13.90
2014,09,15,00,02,13.90
2014,09,15,00,03,14.00
2014,09,15,00,04,14.00
2014,09,15,00,05,14.00
2014,09,15,00,06,14.00
2014,09,15,00,07,14.00
2014,09,15,00,08,14.00
2014,09,15,00,09,14.00
2014,09,15,00,10,13.90
2014,09,15,00,11,13.90
2014,09,15,00,12,13.90
2014,09,15,00,13,13.80
2014,09,15,00,14,13.80
2014,09,15,00,15,13.80
2014,09,15,00,16,13.80
2014,09,15,00,17,13.80
2014,09,15,00,18,13.80
2014,09,15,00,19,13.80
2014,09,15,00,20,13.80
2014,09,15,00,21,13.80
2014,09,15,00,22,13.80
2014,09,15,00,23,13.80
2014,09,15,00,24,13.80
2014,09,15,00,25,13.80
2014,09,15,00,26,13.80
2014,09,15,00,27,13.80
2014,09,15,00,28,13.80
2014,09,15,00,29,13.80
2014,09,15,00,30,13.80
2014,09,15,00,31,13.80
2014,09,15,00,32,13.80
2014,09,15,00,33,13.80
2014,09,15,00,34,13.80
2014,09,15,00,35,13.80
2014,09,15,00,36,13.80
2014,09,15,00,37,13.70
2014,09,15,00,38,13.70
2014,09,15,00,39,13.70
2014,09,15,00,40,13.70
2014,09,15,00,41,13.70
2014,09,15,00,42,13.70
2014,09,15,00,43,13.70
2014,09,15,00,44,13.60
2014,09,15,00,45,13.60
2014,09,15,00,46,13.60
2014,09,15,00,47,13.60
2014,09,15,00,48,13.60
2014,09,15,00,49,13.50
2014,09,15,00,50,13.50
2014,09,15,00,51,13.50
2014,09,15,00,52,13.50
2014,09,15,00,53,13.50
2014,09,15,00,54,13.50
2014,09,15,00,55,13.50
2014,09,15,00,56,13.50
2014,09,15,00,57,13.40
2014,09,15,00,58,13.40
2014,09,15,00,59,13.40
2014,09,15,01,00,13.40
2014,09,15,01,01,13.30
2014,09,15,01,02,13.30
2014,09,15,01,03,13.30
2014,09,15,01,04,13.30
2014,09,15,01,05,13.30
2014,09,15,01,06,13.30
2014,09,15,01,07,13.30
2014,09,15,01,08,13.30
2014,09,15,01,09,13.30
2014,09,15,01,10,13.30
2014,09,15,01,11,13.30
2014,09,15,01,12,13.30
2014,09,15,01,13,13.40
2014,09,15,01,14,13.40
2014,09,15,01,15,13.40
2014,09,15,01,16,13.40
2014,09,15,01,17,13.40
2014,09,15,01,18,13.40
2014,09,15,01,19,13.40
2014,09,15,01,20,13.40
2014,09,15,01,21,13.40
2014,09,15,01,22,13.40
2014,09,15,01,23,13.40
2014,09,15,01,24,13.40
2014,09,15,01,25,13.40
2014,09,15,01,26,13.40
2014,09,15,01,27,13.40
2014,09,15,01,28,13.40
2014,09,15,01,29,13.40
2014,09,15,01,30,13.30
2014,09,15,01,31,13.30
2014,09,15,01,32,13.30
2014,09,15,01,33,13.30
2014,09,15,01,34,13.30
2014,09,15,01,35,13.30
2014,09,15,01,36,13.20
2014,09,15,01,37,13.20
2014,09,15,01,38,13.20
2014,09,15,01,39,13.10
2014,09,15,01,40,13.10
2014,09,15,01,41,13.10
2014,09,15,01,42,13.10
2014,09,15,01,43,13.10
2014,09,15,01,44,13.00
2014,09,15,01,45,13.00
2014,09,15,01,46,13.00
2014,09,15,01,47,13.00
2014,09,15,01,48,13.00
2014,09,15,01,49,13.00
2014,09,15,01,50,13.00
2014,09,15,01,51,13.00
2014,09,15,01,52,13.00
2014,09,15,01,53,13.00
2014,09,15,01,54,13.00
2014,09,15,01,55,13.00
2014,09,15,01,56,12.90
2014,09,15,01,57,12.90
2014,09,15,01,58,12.90
2014,09,15,01,59,12.90
2014,09,15,02,00,13.00
2014,09,15,02,01,13.00
2014,09,15,02,02,13.00
2014,09,15,02,03,13.00
2014,09,15,02,04,13.10
2014,09,15,02,05,13.10
2014,09,15,02,06,13.10
2014,09,15,02,07,13.10
2014,09,15,02,08,13.10
2014,09,15,02,09,13.10
2014,09,15,02,10,13.10
2014,09,15,02,11,13.10
2014,09,15,02,12,13.10
2014,09,15,02,13,13.10
2014,09,15,02,14,13.10
2014,09,15,02,15,13.10
2014,09,15,02,16,13.10
2014,09,15,02,17,13.10
2014,09,15,02,18,13.10
2014,09,15,02,19,13.10
2014,09,15,02,20,13.10
2014,09,15,02,21,13.10
2014,09,15,02,22,13.10
2014,09,15,02,23,13.10
2014,09,15,02,24,13.10
2014,09,15,02,25,13.10
2014,09,15,02,26,13.10
2014,09,15,02,27,13.10
2014,09,15,02,28,13.10
2014,09,15,02,29,13.10
2014,09,15,02,30,13.10
2014,09,15,02,31,13.10
2014,09,15,02,32,13.10
2014,09,15,02,33,13.10
2014,09,15,02,34,13.10
2014,09,15,02,35,13.10
2014,09,15,02,36,13.10
2014,09,15,02,37,13.10
2014,09,15,02,38,13.10
2014,09,15,02,39,13.10
2014,09,15,02,40,13.10
2014,09,15,02,41,13.10
2014,09,15,02,42,13.10
2014,09,15,02,43,13.10
2014,09,15,02,44,13.00
2014,09,15,02,45,13.00
2014,09,15,02,46,13.00
2014,09,15,02,47,13.00
2014,09,15,02,48,13.00
2014,09,15,02,49,13.00
2014,09,15,02,50,12.90
2014,09,15,02,51,12.90
2014,09,15,02,52,12.90
2014,09,15,02,53,12.80
2014,09,15,02,54,12.80
2014,09,15,02,55,12.80
2014,09,15,02,56,12.80
2014,09,15,02,57,12.80
2014,09,15,02,58,12.80
2014,09,15,02,59,12.80
2014,09,15,03,00,12.70
2014,09,15,03,01,12.70
2014,09,15,03,02,12.70
2014,09,15,03,03,12.60
2014,09,15,03,04,12.60
2014,09,15,03,05,12.60
2014,09,15,03,06,12.60
2014,09,15,03,07,12.50
2014,09,15,03,08,12.50
2014,09,15,03,09,12.50
2014,09,15,03,10,12.50
2014,09,15,03,11,12.50
2014,09,15,03,12,12.50
2014,09,15,03,13,12.40
2014,09,15,03,14,12.40
2014,09,15,03,15,12.40
2014,09,15,03,16,12.40
2014,09,15,03,17,12.40
2014,09,15,03,18,12.30
2014,09,15,03,19,12.30
2014,09,15,03,20,12.30
2014,09,15,03,21,12.30
2014,09,15,03,22,12.30
2014,09,15,03,23,12.20
2014,09,15,03,24,12.20
2014,09,15,03,25,12.20
2014,09,15,03,26,12.10
2014,09,15,03,27,12.10
2014,09,15,03,28,12.10
2014,09,15,03,29,12.10
2014,09,15,03,30,12.10
2014,09,15,03,31,12.00
2014,09,15,03,32,12.00
2014,09,15,03,33,12.00
2014,09,15,03,34,12.00
2014,09,15,03,35,11.90
2014,09,15,03,36,11.90
2014,09,15,03,37,11.90
2014,09,15,03,38,11.90
2014,09,15,03,39,11.80
2014,09,15,03,40,11.80
2014,09,15,03,41,11.80
2014,09,15,03,42,11.80
2014,09,15,03,43,11.80
2014,09,15,03,44,11.80
2014,09,15,03,45,11.80
2014,09,15,03,46,11.80
2014,09,15,03,47,11.80
2014,09,15,03,48,11.80
2014,09,15,03,49,11.80
2014,09,15,03,50,11.70
2014,09,15,03,51,11.70
2014,09,15,03,52,11.70
2014,09,15,03,53,11.70
2014,09,15,03,54,11.70
2014,09,15,03,55,11.70
2014,09,15,03,56,11.60
2014,09,15,03,57,11.60
2014,09,15,03,58,11.60
2014,09,15,03,59,11.60
2014,09,15,04,00,11.60
2014,09,15,04,01,11.60
2014,09,15,04,02,11.60
2014,09,15,04,03,11.60
2014,09,15,04,04,11.60
2014,09,15,04,05,11.60
2014,09,15,04,06,11.60
2014,09,15,04,07,11.60
2014,09,15,04,08,11.60
2014,09,15,04,09,11.60
2014,09,15,04,10,11.60
2014,09,15,04,11,11.60
2014,09,15,04,12,11.60
2014,09,15,04,13,11.60
2014,09,15,04,14,11.40
2014,09,15,04,15,11.40
2014,09,15,04,16,11.40
2014,09,15,04,17,11.40
2014,09,15,04,18,11.40
2014,09,15,04,19,11.40
2014,09,15,04,20,11.40
2014,09,15,04,21,11.40
2014,09,15,04,22,11.30
2014,09,15,04,23,11.30
2014,09,15,04,24,11.30
2014,09,15,04,25,11.30
2014,09,15,04,26,11.30
2014,09,15,04,27,11.20
2014,09,15,04,28,11.20
2014,09,15,04,29,11.20
2014,09,15,04,30,11.20
2014,09,15,04,31,11.20
2014,09,15,04,32,11.20
2014,09,15,04,33,11.20
2014,09,15,04,34,11.20
2014,09,15,04,35,11.20
2014,09,15,04,36,11.20
2014,09,15,04,37,11.30
2014,09,15,04,38,11.30
2014,09,15,04,39,11.40
2014,09,15,04,40,11.30
2014,09,15,04,41,11.30
2014,09,15,04,42,11.30
2014,09,15,04,43,11.30
2014,09,15,04,44,11.30
2014,09,15,04,45,11.20
2014,09,15,04,46,11.20
2014,09,15,04,47,11.20
2014,09,15,04,48,11.20
2014,09,15,04,49,11.20
2014,09,15,04,50,11.20
2014,09,15,04,51,11.10
2014,09,15,04,52,11.10
2014,09,15,04,53,11.10
2014,09,15,04,54,11.10
2014,09,15,04,55,11.10
2014,09,15,04,56,11.10
2014,09,15,04,57,11.10
2014,09,15,04,58,11.10
2014,09,15,04,59,11.10
2014,09,15,05,00,11.10
2014,09,15,05,01,11.10
2014,09,15,05,02,11.10
2014,09,15,05,03,11.10
2014,09,15,05,04,11.10
2014,09,15,05,05,11.10
2014,09,15,05,06,11.10
2014,09,15,05,07,11.10
2014,09,15,05,08,11.10
2014,09,15,05,09,11.00
2014,09,15,05,10,10.90
2014,09,15,05,11,10.90
2014,09,15,05,12,10.90
2014,09,15,05,13,10.90
2014,09,15,05,14,10.90
2014,09,15,05,15,10.90
2014,09,15,05,16,10.90
2014,09,15,05,17,10.90
2014,09,15,05,18,10.90
2014,09,15,05,19,10.90
2014,09,15,05,20,10.90
2014,09,15,05,21,10.90
2014,09,15,05,22,10.80
2014,09,15,05,23,10.80
2014,09,15,05,24,10.80
2014,09,15,05,25,10.80
2014,09,15,05,26,10.70
2014,09,15,05,27,10.70
2014,09,15,05,28,10.70
2014,09,15,05,29,10.70
2014,09,15,05,30,10.70
2014,09,15,05,31,10.60
2014,09,15,05,32,10.60
2014,09,15,05,33,10.60
2014,09,15,05,34,10.60
2014,09,15,05,35,10.60
2014,09,15,05,36,10.60
2014,09,15,05,37,10.60
2014,09,15,05,38,10.60
2014,09,15,05,39,10.60
2014,09,15,05,40,10.60
2014,09,15,05,41,10.60
2014,09,15,05,42,10.60
2014,09,15,05,43,10.70
2014,09,15,05,44,10.70
2014,09,15,05,45,10.70
2014,09,15,05,46,10.70
2014,09,15,05,47,10.70
2014,09,15,05,48,10.70
2014,09,15,05,49,10.70
2014,09,15,05,50,10.70
2014,09,15,05,51,10.70
2014,09,15,05,52,10.60
2014,09,15,05,53,10.60
2014,09,15,05,54,10.60
2014,09,15,05,55,10.60
2014,09,15,05,56,10.60
2014,09,15,05,57,10.60
2014,09,15,05,58,10.60
2014,09,15,05,59,10.50
2014,09,15,06,00,10.40
2014,09,15,06,01,10.40
2014,09,15,06,02,10.40
2014,09,15,06,03,10.40
2014,09,15,06,04,10.40
2014,09,15,06,05,10.40
2014,09,15,06,06,10.50
2014,09,15,06,07,10.60
2014,09,15,06,08,10.60
2014,09,15,06,09,10.60
2014,09,15,06,10,10.60
2014,09,15,06,11,10.60
2014,09,15,06,12,10.60
2014,09,15,06,13,10.60
2014,09,15,06,14,10.40
2014,09,15,06,15,10.40
2014,09,15,06,16,10.40
2014,09,15,06,17,10.40
2014,09,15,06,18,10.40
2014,09,15,06,19,10.40
2014,09,15,06,20,10.40
2014,09,15,06,21,10.40
2014,09,15,06,22,10.40
2014,09,15,06,23,10.30
2014,09,15,06,24,10.30
2014,09,15,06,25,10.30
2014,09,15,06,26,10.30
2014,09,15,06,27,10.40
2014,09,15,06,28,10.40
2014,09,15,06,29,10.40
2014,09,15,06,30,10.40
2014,09,15,06,31,10.40
2014,09,15,06,32,10.40
2014,09,15,06,33,10.40
2014,09,15,06,34,10.50
2014,09,15,06,35,10.60
2014,09,15,06,36,10.60
2014,09,15,06,37,10.60
2014,09,15,06,38,10.60
2014,09,15,06,39,10.70
2014,09,15,06,40,10.70
2014,09,15,06,41,10.80
2014,09,15,06,42,10.80
2014,09,15,06,43,10.80
2014,09,15,06,44,10.80
2014,09,15,06,45,10.80
2014,09,15,06,46,10.80
2014,09,15,06,47,10.80
2014,09,15,06,48,10.80
2014,09,15,06,49,10.80
2014,09,15,06,50,10.80
2014,09,15,06,51,10.80
2014,09,15,06,52,10.80
2014,09,15,06,53,10.80
2014,09,15,06,54,10.90
2014,09,15,06,55,10.90
2014,09,15,06,56,10.90
2014,09,15,06,57,10.90
2014,09,15,06,58,10.90
2014,09,15,06,59,10.90
2014,09,15,07,00,10.90
2014,09,15,07,01,10.90
2014,09,15,07,02,10.90
2014,09,15,07,03,10.90
2014,09,15,07,04,10.90
2014,09,15,07,05,10.90
2014,09,15,07,06,10.90
2014,09,15,07,07,10.90
2014,09,15,07,08,10.90
2014,09,15,07,09,10.90
2014,09,15,07,10,10.90
2014,09,15,07,11,10.90
2014,09,15,07,12,10.90
2014,09,15,07,13,10.90
2014,09,15,07,14,10.90
2014,09,15,07,15,10.90
2014,09,15,07,16,10.90
2014,09,15,07,17,10.90
2014,09,15,07,18,10.90
2014,09,15,07,19,10.90
2014,09,15,07,20,10.90
2014,09,15,07,21,10.90
2014,09,15,07,22,10.90
2014,09,15,07,23,10.90
2014,09,15,07,24,10.90
2014,09,15,07,25,10.90
2014,09,15,07,26,10.90
2014,09,15,07,27,10.90
2014,09,15,07,28,10.90
2014,09,15,07,29,10.90
2014,09,15,07,30,10.90
2014,09,15,07,31,10.90
2014,09,15,07,32,10.90
2014,09,15,07,33,10.90
2014,09,15,07,34,10.90
2014,09,15,07,35,10.90
2014,09,15,07,36,10.90
2014,09,15,07,37,10.90
2014,09,15,07,38,10.90
2014,09,15,07,39,10.90
2014,09,15,07,40,10.90
2014,09,15,07,41,10.90
2014,09,15,07,42,10.90
2014,09,15,07,43,11.00
2014,09,15,07,44,11.10
2014,09,15,07,45,11.10
2014,09,15,07,46,11.10
2014,09,15,07,47,11.20
2014,09,15,07,48,11.20
2014,09,15,07,49,11.30
2014,09,15,07,50,11.50
2014,09,15,07,51,11.60
2014,09,15,07,52,11.70
2014,09,15,07,53,11.80
2014,09,15,07,54,11.80
2014,09,15,07,55,11.80
2014,09,15,07,56,11.80
2014,09,15,07,57,11.80
2014,09,15,07,58,11.80
2014,09,15,07,59,11.80
2014,09,15,08,00,11.80
2014,09,15,08,01,11.80
2014,09,15,08,02,11.90
2014,09,15,08,03,12.00
2014,09,15,08,04,12.00
2014,09,15,08,05,12.10
2014,09,15,08,06,12.20
2014,09,15,08,07,12.20
2014,09,15,08,08,12.20
2014,09,15,08,09,12.30
2014,09,15,08,10,12.30
2014,09,15,08,11,12.30
2014,09,15,08,12,12.40
2014,09,15,08,13,12.50
2014,09,15,08,14,12.60
2014,09,15,08,15,12.70
2014,09,15,08,16,12.80
2014,09,15,08,17,12.80
2014,09,15,08,18,12.90
2014,09,15,08,19,12.90
2014,09,15,08,20,13.00
2014,09,15,08,21,13.00
2014,09,15,08,22,13.10
2014,09,15,08,23,13.10
2014,09,15,08,24,13.20
2014,09,15,08,25,13.30
2014,09,15,08,26,13.30
2014,09,15,08,27,13.50
2014,09,15,08,28,13.60
2014,09,15,08,29,13.70
2014,09,15,08,30,13.70
2014,09,15,08,31,13.80
2014,09,15,08,32,13.90
2014,09,15,08,33,13.90
2014,09,15,08,34,14.00
2014,09,15,08,35,14.10
2014,09,15,08,36,14.20
2014,09,15,08,37,14.30
2014,09,15,08,38,14.40
2014,09,15,08,39,14.50
2014,09,15,08,40,14.60
2014,09,15,08,41,14.80
2014,09,15,08,42,14.90
2014,09,15,08,43,15.00
2014,09,15,08,44,15.20
2014,09,15,08,45,15.30
2014,09,15,08,46,15.40
2014,09,15,08,47,15.50
2014,09,15,08,48,15.60
2014,09,15,08,49,15.70
2014,09,15,08,50,15.80
2014,09,15,08,51,15.90
2014,09,15,08,52,16.00
2014,09,15,08,53,16.10
2014,09,15,08,54,16.30
2014,09,15,08,55,16.40
2014,09,15,08,56,16.40
2014,09,15,08,57,16.50
2014,09,15,08,58,16.60
2014,09,15,08,59,16.70
2014,09,15,09,00,16.70
2014,09,15,09,01,16.80
2014,09,15,09,02,16.90
2014,09,15,09,03,17.00
2014,09,15,09,04,17.10
2014,09,15,09,05,17.20
2014,09,15,09,06,17.30
2014,09,15,09,07,17.30
2014,09,15,09,08,17.50
2014,09,15,09,09,17.50
2014,09,15,09,10,17.70
2014,09,15,09,11,17.80
2014,09,15,09,12,17.90
2014,09,15,09,13,17.90
2014,09,15,09,14,18.00
2014,09,15,09,15,18.20
2014,09,15,09,16,18.20
2014,09,15,09,17,18.30
2014,09,15,09,18,18.40
2014,09,15,09,19,18.50
2014,09,15,09,20,18.50
2014,09,15,09,21,18.60
2014,09,15,09,22,18.60
2014,09,15,09,23,18.70
2014,09,15,09,24,18.70
2014,09,15,09,25,18.80
2014,09,15,09,26,18.90
2014,09,15,09,27,18.90
2014,09,15,09,28,19.00
2014,09,15,09,29,19.10
2014,09,15,09,30,19.10
2014,09,15,09,31,19.20
2014,09,15,09,32,19.30
2014,09,15,09,33,19.30
2014,09,15,09,34,19.30
2014,09,15,09,35,19.40
2014,09,15,09,36,19.40
2014,09,15,09,37,19.40
2014,09,15,09,38,19.50
2014,09,15,09,39,19.50
2014,09,15,09,40,19.50
2014,09,15,09,41,19.50
2014,09,15,09,42,19.50
2014,09,15,09,43,19.50
2014,09,15,09,44,19.50
2014,09,15,09,45,19.50
2014,09,15,09,46,19.60
2014,09,15,09,47,19.60
2014,09,15,09,48,19.60
2014,09,15,09,49,19.70
2014,09,15,09,50,19.70
2014,09,15,09,51,19.70
2014,09,15,09,52,19.70
2014,09,15,09,53,19.70
2014,09,15,09,54,19.80
2014,09,15,09,55,19.80
2014,09,15,09,56,19.80
2014,09,15,09,57,19.90
2014,09,15,09,58,19.90
2014,09,15,09,59,19.90
2014,09,15,10,00,20.00
2014,09,15,10,01,20.10
2014,09,15,10,02,20.20
2014,09,15,10,03,20.20
2014,09,15,10,04,20.20
2014,09,15,10,05,20.20
2014,09,15,10,06,20.20
2014,09,15,10,07,20.20
2014,09,15,10,08,20.20
2014,09,15,10,09,20.20
2014,09,15,10,10,20.20
2014,09,15,10,11,20.20
2014,09,15,10,12,20.20
2014,09,15,10,13,20.30
2014,09,15,10,14,20.30
2014,09,15,10,15,20.30
2014,09,15,10,16,20.40
2014,09,15,10,17,20.40
2014,09,15,10,18,20.40
2014,09,15,10,19,20.50
2014,09,15,10,20,20.50
2014,09,15,10,21,20.60
2014,09,15,10,22,20.70
2014,09,15,10,23,20.80
2014,09,15,10,24,20.80
2014,09,15,10,25,20.90
2014,09,15,10,26,20.90
2014,09,15,10,27,20.90
2014,09,15,10,28,21.00
2014,09,15,10,29,21.00
2014,09,15,10,30,21.10
2014,09,15,10,31,21.10
2014,09,15,10,32,21.10
2014,09,15,10,33,21.20
2014,09,15,10,34,21.20
2014,09,15,10,35,21.20
2014,09,15,10,36,21.30
2014,09,15,10,37,21.30
2014,09,15,10,38,21.30
2014,09,15,10,39,21.30
2014,09,15,10,40,21.30
2014,09,15,10,41,21.30
2014,09,15,10,42,21.30
2014,09,15,10,43,21.30
2014,09,15,10,44,21.40
2014,09,15,10,45,21.40
2014,09,15,10,46,21.50
2014,09,15,10,47,21.60
2014,09,15,10,48,21.60
2014,09,15,10,49,21.60
2014,09,15,10,50,21.60
2014,09,15,10,51,21.60
2014,09,15,10,52,21.60
2014,09,15,10,53,21.60
2014,09,15,10,54,21.70
2014,09,15,10,55,21.70
2014,09,15,10,56,21.80
2014,09,15,10,57,21.80
2014,09,15,10,58,21.80
2014,09,15,10,59,21.80
2014,09,15,11,00,21.90
2014,09,15,11,01,22.00
2014,09,15,11,02,22.00
2014,09,15,11,03,22.00
2014,09,15,11,04,22.00
2014,09,15,11,05,22.00
2014,09,15,11,06,22.00
2014,09,15,11,07,22.00
2014,09,15,11,08,22.00
2014,09,15,11,09,22.00
2014,09,15,11,10,22.00
2014,09,15,11,11,22.00
2014,09,15,11,12,22.00
2014,09,15,11,13,22.00
2014,09,15,11,14,22.00
2014,09,15,11,15,22.00
2014,09,15,11,16,22.00
2014,09,15,11,17,22.10
2014,09,15,11,18,22.10
2014,09,15,11,19,22.10
2014,09,15,11,20,22.20
2014,09,15,11,21,22.20
2014,09,15,11,22,22.20
2014,09,15,11,23,22.30
2014,09,15,11,24,22.30
2014,09,15,11,25,22.40
2014,09,15,11,26,22.50
2014,09,15,11,27,22.50
2014,09,15,11,28,22.60
2014,09,15,11,29,22.70
2014,09,15,11,30,22.70
2014,09,15,11,31,22.70
2014,09,15,11,32,22.80
2014,09,15,11,33,22.80
2014,09,15,11,34,22.80
2014,09,15,11,35,22.70
2014,09,15,11,36,22.70
2014,09,15,11,37,22.70
2014,09,15,11,38,22.70
2014,09,15,11,39,22.70
2014,09,15,11,40,22.70
2014,09,15,11,41,22.70
2014,09,15,11,42,22.80
2014,09,15,11,43,22.80
2014,09,15,11,44,22.80
2014,09,15,11,45,22.80
2014,09,15,11,46,22.80
2014,09,15,11,47,22.80
2014,09,15,11,48,22.70
2014,09,15,11,49,22.70
2014,09,15,11,50,22.70
2014,09,15,11,51,22.70
2014,09,15,11,52,22.70
2014,09,15,11,53,22.70
2014,09,15,11,54,22.70
2014,09,15,11,55,22.70
2014,09,15,11,56,22.80
2014,09,15,11,57,22.90
2014,09,15,11,58,23.00
2014,09,15,11,59,23.10
2014,09,15,12,00,23.10
2014,09,15,12,01,23.10
2014,09,15,12,02,23.20
2014,09,15,12,03,23.20
2014,09,15,12,04,23.20
2014,09,15,12,05,23.20
2014,09,15,12,06,23.20
2014,09,15,12,07,23.30
2014,09,15,12,08,23.30
2014,09,15,12,09,23.30
2014,09,15,12,10,23.30
2014,09,15,12,11,23.30
2014,09,15,12,12,23.30
2014,09,15,12,13,23.30
2014,09,15,12,14,23.30
2014,09,15,12,15,23.30
2014,09,15,12,16,23.30
2014,09,15,12,17,23.20
2014,09,15,12,18,23.20
2014,09,15,12,19,23.20
2014,09,15,12,20,23.30
2014,09,15,12,21,23.30
2014,09,15,12,22,23.30
2014,09,15,12,23,23.30
2014,09,15,12,24,23.30
2014,09,15,12,25,23.30
2014,09,15,12,26,23.30
2014,09,15,12,27,23.30
2014,09,15,12,28,23.30
2014,09,15,12,29,23.40
2014,09,15,12,30,23.50
2014,09,15,12,31,23.60
2014,09,15,12,32,23.60
2014,09,15,12,33,23.70
2014,09,15,12,34,23.70
2014,09,15,12,35,23.70
2014,09,15,12,36,23.70
2014,09,15,12,37,23.80
2014,09,15,12,38,23.80
2014,09,15,12,39,23.80
2014,09,15,12,40,23.80
2014,09,15,12,41,23.80
2014,09,15,12,42,23.80
2014,09,15,12,43,23.90
2014,09,15,12,44,24.00
2014,09,15,12,45,24.10
2014,09,15,12,46,24.20
2014,09,15,12,47,24.30
2014,09,15,12,48,24.50
2014,09,15,12,49,24.50
2014,09,15,12,50,24.50
2014,09,15,12,51,24.60
2014,09,15,12,52,24.60
2014,09,15,12,53,24.60
2014,09,15,12,54,24.70
2014,09,15,12,55,24.80
2014,09,15,12,56,24.90
2014,09,15,12,57,24.90
2014,09,15,12,58,25.00
2014,09,15,12,59,25.00
2014,09,15,13,00,25.00
2014,09,15,13,01,24.90
2014,09,15,13,02,24.90
2014,09,15,13,03,24.90
2014,09,15,13,04,25.00
2014,09,15,13,05,24.90
2014,09,15,13,06,24.90
2014,09,15,13,07,24.90
2014,09,15,13,08,24.90
2014,09,15,13,09,24.90
2014,09,15,13,10,24.90
2014,09,15,13,11,24.90
2014,09,15,13,12,25.00
2014,09,15,13,13,24.90
2014,09,15,13,14,24.90
2014,09,15,13,15,25.00
2014,09,15,13,16,25.10
2014,09,15,13,17,25.10
2014,09,15,13,18,25.00
2014,09,15,13,19,25.00
2014,09,15,13,20,25.00
2014,09,15,13,21,25.00
2014,09,15,13,22,25.00
2014,09,15,13,23,25.00
2014,09,15,13,24,25.00
2014,09,15,13,25,24.90
2014,09,15,13,26,24.90
2014,09,15,13,27,24.80
2014,09,15,13,28,24.80
2014,09,15,13,29,24.80
2014,09,15,13,30,24.80
2014,09,15,13,31,24.90
2014,09,15,13,32,24.90
2014,09,15,13,33,25.00
2014,09,15,13,34,25.10
2014,09,15,13,35,25.10
2014,09,15,13,36,25.10
2014,09,15,13,37,25.10
2014,09,15,13,38,25.10
2014,09,15,13,39,25.10
2014,09,15,13,40,25.10
2014,09,15,13,41,25.10
2014,09,15,13,42,25.10
2014,09,15,13,43,25.20
2014,09,15,13,44,25.20
2014,09,15,13,45,25.20
2014,09,15,13,46,25.30
2014,09,15,13,47,25.30
2014,09,15,13,48,24.90
2014,09,15,13,49,24.10
2014,09,15,13,50,23.10
2014,09,15,13,51,22.50
2014,09,15,13,52,22.10
2014,09,15,13,53,21.70
2014,09,15,13,54,21.30
2014,09,15,13,55,21.00
2014,09,15,13,56,20.80
2014,09,15,13,57,20.70
2014,09,15,13,58,20.60
2014,09,15,13,59,20.50
2014,09,15,14,00,20.50
2014,09,15,14,01,20.50
2014,09,15,14,02,20.40
2014,09,15,14,03,20.40
2014,09,15,14,04,20.30
2014,09,15,14,05,20.20
2014,09,15,14,06,20.10
2014,09,15,14,07,20.00
2014,09,15,14,08,19.90
2014,09,15,14,09,19.90
2014,09,15,14,10,19.80
2014,09,15,14,11,19.60
2014,09,15,14,12,19.30
2014,09,15,14,13,19.00
2014,09,15,14,14,18.80
2014,09,15,14,15,18.60
2014,09,15,14,16,18.60
2014,09,15,14,17,18.50
2014,09,15,14,18,18.50
2014,09,15,14,19,18.40
2014,09,15,14,20,18.40
2014,09,15,14,21,18.40
2014,09,15,14,22,18.40
2014,09,15,14,23,18.40
2014,09,15,14,24,18.50
2014,09,15,14,25,18.50
2014,09,15,14,26,18.50
2014,09,15,14,27,18.30
2014,09,15,14,28,18.10
2014,09,15,14,29,18.00
2014,09,15,14,30,17.80
2014,09,15,14,31,17.70
2014,09,15,14,32,17.60
2014,09,15,14,33,17.60
2014,09,15,14,34,17.60
2014,09,15,14,35,17.70
2014,09,15,14,36,17.70
2014,09,15,14,37,17.70
2014,09,15,14,38,17.70
2014,09,15,14,39,17.50
2014,09,15,14,40,17.50
2014,09,15,14,41,17.40
2014,09,15,14,42,17.40
2014,09,15,14,43,17.30
2014,09,15,14,44,17.30
2014,09,15,14,45,17.30
2014,09,15,14,46,17.30
2014,09,15,14,47,17.30
2014,09,15,14,48,17.30
2014,09,15,14,49,17.30
2014,09,15,14,50,17.20
2014,09,15,14,51,17.10
2014,09,15,14,52,17.00
2014,09,15,14,53,17.00
2014,09,15,14,54,17.00
2014,09,15,14,55,17.00
2014,09,15,14,56,16.90
2014,09,15,14,57,17.00
2014,09,15,14,58,17.10
2014,09,15,14,59,17.00
2014,09,15,15,00,17.00
2014,09,15,15,01,17.00
2014,09,15,15,02,16.90
2014,09,15,15,03,16.90
2014,09,15,15,04,16.90
2014,09,15,15,05,16.90
2014,09,15,15,06,16.90
2014,09,15,15,07,16.90
2014,09,15,15,08,16.90
2014,09,15,15,09,16.90
2014,09,15,15,10,16.80
2014,09,15,15,11,16.80
2014,09,15,15,12,16.70
2014,09,15,15,13,16.70
2014,09,15,15,14,16.70
2014,09,15,15,15,16.70
2014,09,15,15,16,16.70
2014,09,15,15,17,16.60
2014,09,15,15,18,16.60
2014,09,15,15,19,16.60
2014,09,15,15,20,16.50
2014,09,15,15,21,16.40
2014,09,15,15,22,16.40
2014,09,15,15,23,16.40
2014,09,15,15,24,16.40
2014,09,15,15,25,16.40
2014,09,15,15,26,16.50
2014,09,15,15,27,16.60
2014,09,15,15,28,16.70
2014,09,15,15,29,16.70
2014,09,15,15,30,16.80
2014,09,15,15,31,16.90
2014,09,15,15,32,16.90
2014,09,15,15,33,16.80
2014,09,15,15,34,16.70
2014,09,15,15,35,16.70
2014,09,15,15,36,16.70
2014,09,15,15,37,16.70
2014,09,15,15,38,16.70
2014,09,15,15,39,16.70
2014,09,15,15,40,16.70
2014,09,15,15,41,16.70
2014,09,15,15,42,16.70
2014,09,15,15,43,16.60
2014,09,15,15,44,16.60
2014,09,15,15,45,16.40
2014,09,15,15,46,16.40
2014,09,15,15,47,16.40
2014,09,15,15,48,16.40
2014,09,15,15,49,16.40
2014,09,15,15,50,16.40
2014,09,15,15,51,16.40
2014,09,15,15,52,16.40
2014,09,15,15,53,16.40
2014,09,15,15,54,16.40
2014,09,15,15,55,16.40
2014,09,15,15,56,16.40
2014,09,15,15,57,16.30
2014,09,15,15,58,16.30
2014,09,15,15,59,16.20
2014,09,15,16,00,16.20
2014,09,15,16,01,16.20
2014,09,15,16,02,16.20
2014,09,15,16,03,16.40
2014,09,15,16,04,16.40
2014,09,15,16,05,16.50
2014,09,15,16,06,16.60
2014,09,15,16,07,16.70
2014,09,15,16,08,16.70
2014,09,15,16,09,16.70
2014,09,15,16,10,16.80
2014,09,15,16,11,16.80
2014,09,15,16,12,16.90
2014,09,15,16,13,16.90
2014,09,15,16,14,16.90
2014,09,15,16,15,16.80
2014,09,15,16,16,16.70
2014,09,15,16,17,16.70
2014,09,15,16,18,16.70
2014,09,15,16,19,16.70
2014,09,15,16,20,16.70
2014,09,15,16,21,16.70
2014,09,15,16,22,16.80
2014,09,15,16,23,16.90
2014,09,15,16,24,16.90
2014,09,15,16,25,17.00
2014,09,15,16,26,17.00
2014,09,15,16,27,17.10
2014,09,15,16,28,17.20
2014,09,15,16,29,17.20
2014,09,15,16,30,17.30
2014,09,15,16,31,17.40
2014,09,15,16,32,17.40
2014,09,15,16,33,17.30
2014,09,15,16,34,17.30
2014,09,15,16,35,17.40
2014,09,15,16,36,17.40
2014,09,15,16,37,17.40
2014,09,15,16,38,17.50
2014,09,15,16,39,17.60
2014,09,15,16,40,17.60
2014,09,15,16,41,17.70
2014,09,15,16,42,17.70
2014,09,15,16,43,17.70
2014,09,15,16,44,17.70
2014,09,15,16,45,17.60
2014,09,15,16,46,17.60
2014,09,15,16,47,17.60
2014,09,15,16,48,17.60
2014,09,15,16,49,17.60
2014,09,15,16,50,17.60
2014,09,15,16,51,17.60
2014,09,15,16,52,17.60
2014,09,15,16,53,17.60
2014,09,15,16,54,17.60
2014,09,15,16,55,17.70
2014,09,15,16,56,17.70
2014,09,15,16,57,17.80
2014,09,15,16,58,17.80
2014,09,15,16,59,17.80
2014,09,15,17,00,17.90
2014,09,15,17,01,17.90
2014,09,15,17,02,17.90
2014,09,15,17,03,17.90
2014,09,15,17,04,17.90
2014,09,15,17,05,17.90
2014,09,15,17,06,17.90
2014,09,15,17,07,17.90
2014,09,15,17,08,17.90
2014,09,15,17,09,17.90
2014,09,15,17,10,17.90
2014,09,15,17,11,18.00
2014,09,15,17,12,18.10
2014,09,15,17,13,18.10
2014,09,15,17,14,18.20
2014,09,15,17,15,18.20
2014,09,15,17,16,18.20
2014,09,15,17,17,18.20
2014,09,15,17,18,18.20
2014,09,15,17,19,18.20